Location: �quevilley
(47.7692°N, 6.1834°E)
Time: 21:08:43
(UTC+00:00)

Daily predictions for brighter satellites

Satellite Brightness Start Highest point End
(mag) Time Altitude Azimuth Time Altitude Azimuth Time Altitude Azimuth
PSLV R/B 3.8 16:55:13 10° SSE 16:59:09 66° ENE 17:03:03 10° N
Cosmos 1697 Rocket 4.1 16:55:10 10° WSW 17:00:26 39° NW 17:05:44 10° NNE
Cosmos 1727 Rocket 4.4 16:55:13 10° NNW 17:01:23 70° W 17:07:31 10° S
Cosmos 389 Rocket 3.4 16:58:17 10° SSW 17:01:36 50° WNW 17:04:58 10° N
ATLAS 3B R/B 3.7 16:55:53 10° WSW 17:02:08 42° NW 17:08:42 10° NE
PAYLOAD B 4.2 16:57:06 10° SSE 17:02:35 67° ENE 17:08:07 10° N
NOAA 6 4.3 16:58:06 10° SSE 17:03:17 80° WSW 17:08:31 10° NNW
Cosmos 1626 Rocket 4.3 17:00:33 10° N 17:04:26 31° ENE 17:08:17 10° SE
SMAP 3.3 17:01:01 10° S 17:05:41 77° WSW 17:10:22 10° NNW
Cosmos 1408 4.4 17:04:28 10° NE 17:06:14 13° ENE 17:08:00 10° E
Cosmos 1844 Rocket 3.3 17:05:30 10° NNW 17:10:34 34° NE 17:15:35 10° ESE
CZ-2D R/B 3.3 17:07:02 10° SSE 17:10:50 61° ENE 17:14:40 10° N
NOSS 3-1 (A) 4.1 17:06:22 10° S 17:10:50 29° ESE 17:15:54 10° NE
AQUARIUS 4.4 17:06:44 10° S 17:11:13 79° WSW 17:15:45 10° NNW
H-2A R/B 2.2 17:06:05 10° SSE 17:11:23 58° ENE 17:16:45 10° N
Cosmos 371 Rocket 3.4 17:08:13 10° S 17:12:57 56° ESE 17:17:45 10° NNE
X-37B 2.0 17:10:11 10° W 17:13:32 40° SSW 17:16:52 10° SE
Cosmos 1908 3.8 17:11:57 10° SSW 17:15:47 61° WNW 17:19:36 10° N
Cosmos 1328 3.8 17:12:51 10° N 17:16:54 67° E 17:20:55 10° SSE
CENTAUR R/B 4.3 17:13:10 10° NW 17:18:56 25° N 17:25:24 10° ENE
USA 267 3.4 17:14:01 10° SE 17:20:34 86° SW 17:27:10 10° NW
Tiangong 2.8 17:22:35 10° WSW 17:25:18 26° S 17:28:02 10° SE
MOS 1-B Rocket 4.3 17:19:42 10° NNE 17:25:51 44° E 17:31:21 10° SSE
SKYMED 2 3.9 17:21:48 10° NNE 17:26:00 45° E 17:30:09 10° S
Cosmos 1455 Rocket 3.3 17:24:31 10° SSW 17:28:58 78° W 17:33:27 10° N
BREEZE-M R/B 2.4 17:25:35 10° W 17:29:17 84° NNE 17:32:43 14° E
Cosmos 1605 Rocket 4.3 17:23:57 10° SSE 17:29:52 45° E 17:35:53 10° NNE
H-2A R/B 3.6 17:30:43 15° E 17:30:43 15° E 17:32:42 10° SE
YAOGAN 1 3.4 17:26:42 10° SE 17:30:24 29° ENE 17:34:09 10° N
NOSS 2-3 (D) 3.6 17:26:36 10° SSW 17:30:33 57° SE 17:35:08 10° NE
Landsat 5 3.9 17:26:28 10° NNE 17:30:46 46° E 17:35:05 10° S
Cosmos 1953 3.4 17:27:24 10° SSW 17:31:20 48° WNW 17:35:17 10° N
NOSS 3-1 (C) 3.2 17:28:57 10° SSW 17:34:11 72° SE 17:40:24 10° NE
ATLAS 5 CENTAUR R/B 2.8 17:31:23 10° WSW 17:35:03 34° NW 17:39:13 10° NNE
Cosmos 44 4.0 17:31:28 10° S 17:36:28 39° ESE 17:40:54 12° NE
Cosmos 2278 Rocket 4.0 17:33:45 10° N 17:36:44 14° NE 17:38:37 12° NE
Cosmos 1535 Rocket 4.5 17:30:54 10° S 17:37:07 69° E 17:43:27 10° NNE
Lacrosse 4 Rocket 1.4 17:33:07 10° NNW 17:37:28 84° ENE 17:41:52 10° SSE
Cosmos 1140 Rocket 4.4 17:33:51 10° N 17:38:16 27° NE 17:41:12 17° E
Cosmos 407 Rocket 4.4 17:35:30 10° N 17:40:12 30° NE 17:43:30 17° ESE
Cosmos 1825 3.6 17:39:12 10° NNE 17:41:33 19° ENE 17:41:33 19° ENE
Cosmos 1300 2.6 17:38:35 10° S 17:42:23 88° E 17:46:13 10° N
NOSS 2-3 (C) 3.4 17:39:01 10° SSW 17:43:03 78° SE 17:47:34 11° NE
Cosmos 1544 Rocket 3.5 17:39:03 10° S 17:43:32 88° E 17:48:01 10° N
Cosmos 2251 Rocket 3.5 17:38:42 10° NNW 17:43:54 59° ENE 17:49:03 10° SE
NOSS 8 (H) 4.0 17:41:25 10° SSW 17:44:42 73° SE 17:46:30 22° NE
SL-16 R/B 2.2 17:39:30 10° SSW 17:45:10 83° ESE 17:50:53 10° NNE
SL-19 R/B 4.4 17:46:30 10° NNE 17:52:12 83° WNW 17:57:46 10° SSW
Cosmos 2322 Rocket 2.1 17:51:03 10° SSW 17:56:38 79° ESE 18:02:17 10° NNE
Cosmos 1934 Rocket 4.1 17:51:26 10° SSW 17:57:32 77° W 18:03:37 10° N
CZ-4C R/B 2.7 17:55:36 10° NNE 17:58:57 70° ESE 18:02:11 10° S
Iridium 4 Rocket 3.8 17:56:42 10° N 18:01:21 66° W 18:06:27 10° S
IRAS Rocket 4.3 17:56:33 10° NNE 18:01:59 52° ESE 18:07:20 10° S
Cosmos 2219 Rocket 3.3 17:57:52 10° SSE 18:01:22 22° ESE 18:01:22 22° ESE
Okean O Rocket 2.0 17:58:03 10° S 18:02:21 65° WSW 18:06:43 10° NNW
Cosmos 304 Rocket 3.7 17:58:05 10° SSW 18:02:52 90° WNW 18:07:42 10° NNE
Cosmos 614 Rocket 3.9 17:58:08 10° NNW 18:03:15 88° ENE 18:08:22 10° SSE
Cosmos 2360 Rocket 2.2 18:00:04 10° S 18:05:35 58° ESE 18:11:09 10° NE
Cosmos 1844 3.7 18:00:31 10° NNW 18:06:19 68° ENE 18:11:17 14° SE
CZ-4 R/B 1.3 18:02:26 10° SSE 18:06:26 62° ENE 18:10:32 10° N
Meteor 1-4 Rocket 2.4 18:03:12 10° SSW 18:06:41 84° W 18:10:09 10° N
Cosmos 1602 Rocket 3.5 18:03:38 10° N 18:08:00 85° W 18:12:19 10° S
MetOp-A 4.5 18:05:20 20° SE 18:08:35 42° ENE 18:13:37 10° N
Cosmos 1932 4.4 18:02:22 10° NW 18:08:38 81° NE 18:13:52 15° SE
FALCON 9 DEB 4.3 18:06:23 10° SSW 18:08:09 23° SSE 18:08:09 23° SSE
ARGOS 3.3 18:03:46 10° S 18:09:10 78° WSW 18:14:38 10° NNW
COSMO-SKYMED 1 3.1 18:09:49 10° N 18:14:07 60° WNW 18:18:23 10° SSW
Cosmos 2333 Rocket 2.7 18:11:05 10° S 18:16:11 36° ESE 18:17:13 33° E
CZ-4B R/B 4.5 18:15:20 10° S 18:20:42 43° W 18:26:06 10° NNW
In-Cosmos 22 Rocket 4.1 18:17:54 10° NNW 18:23:14 80° W 18:28:33 10° S
SL-8 R/B 3.6 18:19:15 10° W 18:24:04 82° N 18:25:25 47° E
Spot 2 4.4 18:20:10 10° S 18:24:19 67° WSW 18:28:45 10° NNW
IRS-1C Rocket 4.0 18:19:34 11° SSE 18:24:36 69° ENE 18:29:51 10° N
Cosmos 1190 Rocket 4.2 18:20:20 10° NNW 18:25:22 47° ENE 18:26:13 43° E
Cosmos 332 Rocket 4.4 18:22:32 10° SW 18:27:20 56° WNW 18:32:09 10° NNE
Okean-O 2.6 18:26:34 48° ESE 18:27:29 59° ENE 18:31:51 10° N
CZ-2C R/B 3.2 18:22:52 10° N 18:28:25 63° WNW 18:33:49 10° SSW
OE (NEXTSAT) 4.5 18:25:08 10° W 18:28:21 64° SSW 18:28:21 64° SSW
USA 215 3.8 18:24:03 20° NE 18:28:37 55° NNW 18:34:57 10° W
Cosmos 1943 Rocket 4.4 18:27:52 10° NNE 18:28:54 10° NNE 18:29:08 10° NNE
Cosmos 1825 Rocket 3.4 18:25:57 10° N 18:30:18 70° E 18:31:17 50° SE
CSL-04 Debris 4.1 18:28:30 33° SE 18:30:49 59° ENE 18:36:10 10° N
H-2A R/B 3.1 18:28:19 10° S 18:32:31 57° WSW 18:36:35 10° NNW
Cosmos 1892 3.3 18:31:09 10° NNW 18:34:50 54° W 18:38:30 10° S
Cosmos 2228 2.9 18:32:17 10° S 18:36:40 83° E 18:41:06 10° N
Cosmos 1758 Rocket 3.9 18:33:21 10° NNW 18:37:39 64° W 18:41:56 10° S
Cosmos 2322 3.9 18:32:38 10° S 18:38:00 47° ESE 18:38:00 47° ESE
USA 229 DEB 3.6 18:32:11 10° SW 18:38:37 82° NW 18:43:37 20° NE
USA 229 3.6 18:32:18 10° SW 18:38:43 83° NW 18:43:41 20° NE
Cosmos 2344 4.5 18:30:58 10° NW 18:40:08 75° SW 18:53:01 10° SSE
CSL-04 Rocket 3.6 18:39:01 41° SE 18:40:53 65° ENE 18:46:24 10° N
Cosmos 1408 3.4 18:38:00 10° NNW 18:41:29 48° W 18:43:38 20° SSW
Cosmos 1953 Rocket 3.9 18:39:42 10° N 18:43:15 50° NNE 18:43:15 50° NNE
Cosmos 1459 Rocket 3.9 18:41:17 10° S 18:47:22 62° E 18:53:24 10° NNE
X-37B 3.4 18:48:54 10° WSW 18:50:53 14° SSW 18:51:10 14° SSW
Cosmos 2100 Rocket 3.9 18:46:55 10° S 18:53:13 75° E 18:59:35 10° NNE
Cosmos 1844 Rocket 3.6 18:49:18 10° NW 18:54:37 46° WSW 18:59:39 11° S
ATLAS 3B R/B 4.5 18:49:35 10° WNW 18:54:45 22° N 18:58:46 14° NNE
NOSS 3-1 (A) 3.8 18:55:50 10° WSW 19:01:11 58° NW 19:04:32 27° NNE
Tiangong 4.1 18:59:39 10° WSW 19:00:17 12° SW 19:00:17 12° SW
DMSP B5D2-2 4.3 18:57:27 10° N 19:02:41 69° WNW 19:07:51 10° SSW
Cosmos 2173 Rocket 3.8 18:57:30 10° S 19:03:42 83° E 19:10:03 10° N
Cosmos 1802 Rocket 4.0 18:58:54 10° S 19:05:57 58° NE 19:11:05 10° NNE
YAOGAN 1 4.3 19:02:33 10° SSW 19:06:26 32° W 19:10:21 10° NNW
H-2A R/B 3.0 19:07:49 40° SW 19:07:49 40° SW 19:10:44 10° SSW
CENTAUR R/B 3.7 19:04:41 10° NW 19:11:53 40° NNE 19:12:59 38° NE
Cosmos 1825 4.1 19:14:04 10° NNW 19:16:20 28° NW 19:16:20 28° NW
Cosmos 44 4.5 19:12:33 10° WSW 19:17:43 44° NW 19:19:21 34° N
NOSS 3-2 (A) 4.4 19:12:46 10° NW 19:19:38 45° NE 19:19:55 45° NE
Cosmos 1140 Rocket 4.2 19:15:18 10° NNW 19:20:19 49° WSW 19:21:16 44° SW
COSMOS 2428 4.3 19:15:01 10° SSW 19:16:52 22° SSW 19:16:52 22° SSW
ATLAS 5 CENTAUR R/B 4.1 19:18:44 10° NW 19:21:08 14° N 19:21:55 14° N
Cosmos 2278 Rocket 3.0 19:16:35 10° NNW 19:20:29 40° N 19:20:29 40° N
Cosmos 407 Rocket 4.4 19:17:17 10° NNW 19:22:23 46° WSW 19:23:45 38° SW
ATLAS 5 CENTAUR R/B 4.5 19:08:33 10° WNW 19:23:30 33° NNW 19:26:02 25° NNE
SL-16 R/B 4.4 19:25:39 10° W 19:30:01 22° NW 19:34:22 10° N
Cosmos 2322 Rocket 4.3 19:36:59 10° W 19:41:21 23° NW 19:45:46 10° N
CZ-4 R/B 4.5 19:39:48 10° WSW 19:41:52 14° W 19:43:56 10° WNW
Cosmos 2219 Rocket 3.4 19:40:05 10° SW 19:43:11 33° SW 19:43:11 33° SW
Cosmos 2360 Rocket 3.9 19:45:04 10° WSW 19:49:57 29° NW 19:53:15 17° N
Cosmos 2333 Rocket 3.4 19:54:59 10° SW 19:59:19 39° W 19:59:19 39° W
USA 215 4.2 20:11:24 39° N 20:11:24 39° N 20:16:56 10° WNW
Cosmos 1943 Rocket 4.4 20:09:15 10° NNW 20:10:39 17° N 20:10:39 17° N
CENTAUR R/B 4.1 20:55:21 10° NW 21:00:09 42° NW 21:00:09 42° NW
